Terug naar catalogus

COSMOS 1818 COOLANT

ActiefLEO
NORAD 34175·DEBRIS·🇷🇺 Russia

Gelanceerd Feb 1, 1987 vanaf Baikonur Cosmodrome

Loading…

Volgende Passages (komende 24 uur)

TLE

VerouderdSource: Space-Track

Epoch: Sep 2, 2026, 20:41 UTC

1 34175U 87011F   26245.86223206  .00000592  00000-0  20835-3 0  9992
2 34175  65.0019 298.3397 0022530 279.4091  80.4452 14.42560046101027

Volg COSMOS 1818 COOLANT in realtime met AllMySat

Download on the App Store